This is the latest recevied weather packets stored in our database for station/object K7FLA. If no packets are shown the sender has not sent any weather packets the latest 10 day(s).
| Time | Temp. | Humidity | Pressure | Rain* | Wind** | Luminosity | Snow |
|---|---|---|---|---|---|---|---|
| 1788650704 | 31.67° C | 27% | 1094.9 hPa | 0 mm | - | 147 W/m² | - |
| 1788650400 | 31.67° C | 26% | 1094.9 hPa | 0 mm | - | 153 W/m² | - |
| 1788650095 | 32.22° C | 27% | 1094.9 hPa | 0 mm | - | 185 W/m² | - |
| 1788649792 | 32.22° C | 25% | 1095.1 hPa | 0 mm | - | 155 W/m² | - |
| 1788649490 | 32.78° C | 24% | 1095.3 hPa | 0 mm | - | 205 W/m² | - |
| 1788649188 | 33.33° C | 24% | 1094.9 hPa | 0 mm | - | 255 W/m² | - |
| 1788648884 | 33.33° C | 25% | 1095.1 hPa | 0 mm | - | 626 W/m² | - |
| 1788648579 | 32.78° C | 24% | 1095 hPa | 0 mm | - | 309 W/m² | - |
| 1788648275 | 33.33° C | 24% | 1095 hPa | 0 mm | - | 292 W/m² | - |
| 1788647974 | 33.33° C | 24% | 1095.1 hPa | 0 mm | - | 647 W/m² | - |
| 1788647672 | 33.33° C | 24% | 1095.2 hPa | 0 mm | - | 578 W/m² | - |
| 1788647366 | 33.33° C | 24% | 1095.1 hPa | 0 mm | - | 564 W/m² | - |
| 1788647066 | 33.33° C | 23% | 1095.3 hPa | 0 mm | - | 554 W/m² | - |
| 1788646761 | 33.33° C | 24% | 1095.2 hPa | 0 mm | - | 589 W/m² | - |
| 1788646458 | 33.33° C | 24% | 1095.4 hPa | 0 mm | - | 575 W/m² | - |
| 1788646154 | 33.33° C | 24% | 1095.2 hPa | 0 mm | - | 582 W/m² | - |
| 1788645850 | 33.33° C | 24% | 1095.4 hPa | 0 mm | - | 576 W/m² | - |
| 1788645549 | 33.89° C | 24% | 1095.6 hPa | 0 mm | - | 392 W/m² | - |
| 1788645245 | 33.33° C | 24% | 1095.6 hPa | 0 mm | - | 647 W/m² | - |
| 1788644945 | 33.33° C | 24% | 1095.7 hPa | 0 mm | - | 718 W/m² | - |
| 1788644636 | 32.78° C | 23% | 1096 hPa | 0 mm | - | 703 W/m² | - |
| 1788644331 | 32.78° C | 24% | 1095.9 hPa | 0 mm | - | 626 W/m² | - |
| 1788644027 | 33.33° C | 24% | 1095.7 hPa | 0 mm | - | 390 W/m² | - |
| 1788643722 | 33.33° C | 24% | 1095.9 hPa | 0 mm | - | 356 W/m² | - |
| 1788643422 | 33.33° C | 23% | 1095.7 hPa | 0 mm | - | 759 W/m² | - |
* Rain latest hour (hover to see other rain measurements)
** Current wind speed in m/s (hover to see current wind gust speed)